User: anonymous   Login
Location: Unspecified
(0.0000°N, 0.0000°E)
Time: 10:08:38
(UTC+00:00)
Language:

COSMOS 2489 - Orbit

View from above orbital plane
View from above orbital plane
View from above satellite
View from above satellite

Ground track
Ground track

The orbit is defined by the following mean orbital elements,

1 39484U          26145.55418178 +.00000000 +00000-0 -10295-2 0 00008
2 39484  82.4883 184.1677 0022269 142.3797 217.8846 12.42878800    07
Epoch (UTC): 25 May 2026 13:18:01
Eccentricity: 0.0022269
inclination: 82.4883°
perigee height: 1477 km
apogee height: 1512 km
right ascension of ascending node: 184.1677°
argument of perigee: 142.3797°
revolutions per day: 12.42878800
mean anomaly at epoch: 217.8846°

The dashed part of the orbit path shows where the satellite is in the earth's shadow,  

DLR